QPF
0.09 0.01 0.00 0.00 0.00 0.00 0.01 0.01 0.00 0.00 0.00 0.00 0.00 0.00 0.00 0.00 0.00 0.00 0.00 0.00 0.00 0.00
0.01 0.01 0.00 0.00 0.01 0.02 0.01 0.01 0.01 0.01 0.00 0.00 0.00 0.00 0.00 0.00 0.00 0.00 0.00 0.00 0.00 0.00
0.00 0.01 0.01 0.01 0.01 0.01 0.02 0.01 0.01 0.00 0.00 0.00 0.00 0.00 0.00 0.00 0.00 0.00 0.00 0.00 0.00 0.00
0.01 0.01 0.00 0.00 0.00 0.00 0.00 0.00 0.00 0.00 0.00 0.00 0.00 0.00 0.00 0.00 0.00 0.00 0.00 0.00 0.00 0.00
0.00 0.00 0.00 0.00 0.00 0.00 0.00 0.00 0.00 0.00 0.00 0.00 0.00 0.00 0.00 0.00 0.00 0.00 0.00 0.00 0.00 0.00
0.00 0.00 0.00 0.00 0.00 0.00 0.00 0.00 0.00 0.00 0.00 0.00 0.00 0.00 0.00 0.00 0.00 0.00 0.00 0.00 0.00 0.00
0.00 0.00 0.00 0.00 0.00 0.00 0.00 0.00 0.00 0.00 0.00 0.00 0.00 0.00 0.00 0.00 0.00 0.00 0.00 0.00 0.00 0.00
0.00 0.00 0.00 0.00 0.00 0.00 0.00 0.00 0.00 0.00 0.00 0.00 0.00 0.00 0.00 0.00 0.00 0.00 0.00 0.00 0.00 0.00
0.00 0.00 0.00 0.00 0.00 0.00 0.00 0.00 0.00 0.00 0.00 0.00 0.00 0.00 0.00 0.00 0.00 0.00 0.00 0.00 0.00 0.00
0.00 0.00 0.00 0.00 0.00 0.00 0.00 0.00 0.00 0.00 0.00 0.00 0.00 0.00 0.00 0.00 0.00 0.00 0.00 0.00 0.00 0.00
0.00 0.00 0.00 0.00 0.00 0.00 0.00 0.00 0.00 0.00 0.00 0.00 0.00 0.00 0.00 0.00 0.00 0.00 0.00 0.00 0.00 0.00
0.00 0.00 0.00 0.00 0.00 0.00 0.00 0.00 0.00 0.00 0.00 0.00 0.00 0.00 0.00 0.00 0.00 0.00 0.00 0.00 0.00 0.00
0.00 0.00 0.00 0.00 0.00 0.00 0.00 0.00 0.00 0.00 0.00 0.00 0.00 0.00 0.00 0.00 0.00 0.00 0.00 0.00 0.00 0.00
0.00 0.00 0.00 0.00 0.00 0.00 0.00 0.00 0.00 0.00 0.00 0.00 0.00 0.00 0.00 0.00 0.00 0.00 0.00 0.00 0.00 0.00
MSLP
1016.75 1017.64 1017.75 1018.27 1018.22 1019.09 1019.75 1020.80 1021.18 1021.53 1021.56 1021.76 1022.39 1022.78 1022.78 1022.93 1023.36 1023.43 1023.73 1024.20 1024.41 1024.49
1017.16 1017.19 1017.98 1018.64 1018.88 1019.34 1019.83 1020.35 1021.05 1021.19 1021.49 1022.34 1023.12 1023.04 1023.02 1023.06 1023.35 1023.59 1024.00 1024.39 1024.67 1024.83
1017.19 1017.70 1018.05 1018.53 1019.03 1019.54 1020.00 1020.42 1020.79 1021.37 1021.99 1022.42 1023.23 1022.86 1023.27 1023.45 1023.63 1023.77 1024.24 1024.61 1024.92 1024.93
1017.64 1018.00 1018.35 1018.97 1019.46 1019.94 1020.47 1020.85 1021.26 1021.63 1022.14 1022.64 1022.86 1022.90 1023.29 1023.57 1023.75 1023.89 1024.44 1024.80 1024.93 1024.98
1018.49 1018.91 1019.42 1019.90 1020.11 1020.50 1020.96 1021.41 1021.66 1021.87 1022.33 1022.86 1023.03 1023.21 1023.40 1023.59 1023.86 1024.11 1024.49 1024.72 1024.88 1024.94
1019.63 1019.89 1020.32 1020.71 1020.91 1021.23 1021.56 1021.89 1022.28 1022.40 1022.85 1023.12 1023.37 1023.67 1023.77 1023.85 1024.04 1024.21 1024.44 1024.57 1024.58 1024.53
1020.60 1020.90 1021.30 1021.38 1021.62 1021.94 1022.11 1022.35 1022.77 1023.20 1023.35 1023.61 1023.79 1023.82 1023.87 1023.90 1024.11 1024.22 1024.36 1024.48 1024.68 1024.59
1021.60 1021.78 1022.07 1022.33 1022.54 1022.64 1022.80 1023.15 1023.36 1023.46 1023.64 1023.80 1023.87 1023.84 1023.87 1023.93 1024.01 1024.09 1024.31 1024.50 1024.37 1024.25
1022.24 1022.49 1022.72 1023.02 1023.20 1023.34 1023.71 1023.94 1023.97 1023.98 1024.19 1024.30 1024.06 1024.01 1023.72 1023.58 1023.82 1024.05 1024.37 1024.16 1023.80 1023.63
1022.90 1023.22 1023.46 1023.73 1024.02 1024.27 1024.43 1024.45 1024.42 1024.51 1024.53 1024.49 1024.38 1024.16 1023.80 1023.82 1024.01 1024.18 1024.12 1023.98 1023.75 1023.51
1023.81 1024.15 1024.45 1024.57 1024.75 1024.76 1024.71 1024.76 1024.78 1024.76 1024.76 1024.65 1024.63 1024.45 1024.05 1023.82 1023.94 1023.93 1023.88 1023.75 1023.58 1023.46
1024.21 1024.28 1024.47 1024.67 1024.81 1024.87 1024.87 1024.84 1024.80 1024.92 1024.95 1024.91 1024.81 1024.73 1024.37 1024.06 1023.83 1023.61 1023.42 1023.27 1023.10 1022.88
1024.37 1024.53 1024.85 1025.01 1025.02 1025.16 1025.22 1025.31 1025.40 1025.35 1025.39 1025.29 1025.10 1024.86 1024.39 1024.00 1023.58 1023.24 1022.96 1022.70 1022.49 1022.24
1024.97 1025.15 1025.31 1025.39 1025.43 1025.46 1025.54 1025.62 1025.62 1025.53 1025.40 1025.22 1025.02 1024.58 1024.21 1023.59 1023.08 1022.74 1022.35 1022.12 1021.88 1021.68
Thickness
5620 5612 5610 5607 5611 5601 5598 5589 5584 5582 5584 5584 5578 5574 5576 5573 5568 5564 5560 5553 5548 5545
5612 5610 5602 5595 5598 5593 5591 5587 5581 5582 5581 5573 5565 5566 5566 5562 5558 5554 5547 5540 5534 5528
5606 5602 5596 5593 5589 5585 5582 5579 5577 5573 5569 5565 5559 5560 5554 5549 5546 5541 5532 5524 5518 5513
5598 5595 5591 5585 5583 5581 5576 5572 5569 5565 5560 5556 5552 5549 5543 5537 5531 5526 5515 5507 5502 5495
5585 5581 5578 5575 5574 5571 5567 5562 5560 5557 5553 5546 5541 5536 5529 5524 5516 5509 5500 5491 5483 5475
5573 5572 5568 5565 5562 5558 5554 5549 5545 5543 5538 5532 5525 5517 5512 5506 5499 5491 5481 5472 5464 5456
5562 5559 5555 5554 5550 5545 5541 5539 5532 5525 5521 5515 5508 5502 5496 5488 5479 5470 5460 5449 5436 5429
5548 5547 5543 5540 5536 5534 5531 5524 5519 5515 5509 5502 5494 5486 5477 5468 5458 5447 5435 5422 5415 5411
5538 5535 5531 5527 5525 5521 5514 5508 5503 5497 5489 5479 5474 5463 5455 5447 5436 5423 5410 5407 5406 5402
5525 5520 5517 5513 5508 5502 5497 5493 5489 5480 5473 5465 5456 5446 5436 5422 5410 5400 5396 5393 5390 5389
5511 5506 5502 5499 5494 5491 5488 5482 5474 5465 5454 5445 5433 5420 5410 5401 5392 5387 5385 5384 5382 5380
5504 5502 5498 5493 5489 5483 5476 5470 5463 5453 5442 5430 5417 5405 5395 5384 5379 5377 5376 5375 5375 5375
5498 5495 5489 5484 5480 5474 5465 5457 5446 5436 5423 5412 5401 5385 5376 5371 5369 5369 5369 5369 5369 5369
5488 5484 5479 5474 5468 5461 5453 5444 5433 5422 5412 5398 5382 5372 5366 5364 5365 5365 5365 5365 5364 5363